Regional Weather Roundup
Issued by NWS

Home | Current Version | Previous Version | Text Only | Print | Product List | Glossary Off
Versions: 1 2 3 4 5 6 7 8 9 10 11 12 13 14 15 16 17 18 19 20 21 22 23 24 25 26 27 28 29 30 31 32 33 34 35 36 37 38 39 40 41 42 43 44 45 46 47 48 49 50

000
ASUS43 KDTX 040510
RWRMI
MICHIGAN HOURLY REGIONAL WEATHER ROUNDUP
NATIONAL WEATHER SERVICE DETROIT/PONTIAC MI
100 AM EDT TUE AUG 04 2015

NOTE: "FAIR" INDICATES FEW OR NO CLOUDS BELOW 12,000 FEET WITH NO
SIGNIFICANT WEATHER AND/OR OBSTRUCTION TO VISIBILITY.

MIZ047>049-052>055-059>063-066>070-074>076-081>083-040600-
SOUTHEAST LOWER MICHIGAN

CITY           SKY/WX    TMP DP  RH WIND       PRES   REMARKS
ADRIAN         CLEAR     61  53  75 NW7       29.90S
ALMA           MOCLDY    62  56  80 SW5       29.87S
ANN ARBOR      CLEAR     54  52  93 SW5       29.88R
BAD AXE        CLOUDY    61  58  90 CALM      29.85R
CARO           MOCLDY    59  57  92 CALM      29.85R
DETROIT CITY   CLEAR     67  51  56 W5        29.86R
DETROIT        PTCLDY    65  52  62 W7        29.87S
FLINT          MOCLDY    62  54  74 SW5       29.87R
GROSSE ILE     CLEAR     66  54  63 W5        29.86S
HILLSDALE      CLEAR     60  55  82 CALM      29.91S
HOWELL         CLEAR     58  53  81 W6        29.88S

CITY           SKY/WX    TMP DP  RH WIND       PRES   REMARKS
JACKSON        CLEAR     58  54  86 SW5       29.90R
LAMBERTVILLE   CLEAR     61  54  77 CALM      29.89S
LANSING        CLOUDY    64  52  64 W6        29.89R
LAPEER         FAIR      59  55  88 CALM      29.86S
MASON          PTCLDY    59  51  75 CALM      29.89S
MONROE         CLEAR     61  54  79 W5        29.87S
MT. CLEMENS    CLEAR     65  54  65 W7        29.84R
PONTIAC        PTCLDY    63  53  70 W3        29.86S
PORT HURON     CLEAR     59  59 100 CALM      29.85R
TRI CITIES     CLEAR     60  54  80 W6        29.86R
MIDLAND        FAIR      57  54  91 CALM      29.85S
TROY           CLEAR     67  52  57 W6        29.87S
SAGINAW HB     CLEAR     61  55  82 SW5       29.85R
$$
MIZ043>046-050>051-056>058-064>065-071>073-077>080-040600-
SOUTHWEST LOWER MICHIGAN

CITY           SKY/WX    TMP DP  RH WIND       PRES   REMARKS
BATTLE CREEK     N/A    N/A N/A N/A MISG      29.90S
BENTON HARBOR  CLOUDY    61  57  87 E3        29.90R
BIG RAPIDS     CLOUDY    63  53  70 W3        29.87S
COLDWATER      CLEAR     58  56  93 CALM      29.91S
FREMONT        MOCLDY    61  59  92 SW6       29.87R
HOLLAND        PTCLDY    64  55  72 SW7       29.89R
GRAND RAPIDS   CLOUDY    67  53  61 SW7       29.88S
IONIA          CLOUDY    64  54  70 W5        29.88R
KALAMAZOO      PTCLDY    60  53  77 SW5       29.90S
LUDINGTON      PTCLDY    61  58  90 CALM      29.87R
MARSHALL       CLEAR     60  53  77 CALM      29.90R
MOUNT PLEASANT PTCLDY    63  54  71 W3        29.86S
MUSKEGON       MOCLDY    66  58  75 SW6       29.88R
SOUTH HAVEN    MOCLDY    61  56  84 CALM      29.89S
$$
MIZ016>042-040600-
NORTHERN LOWER MICHIGAN

CITY           SKY/WX    TMP DP  RH WIND       PRES   REMARKS
ALPENA         PTCLDY    58  54  86 CALM      29.83S
BEAVER ISLAND  MOCLDY    56  55  97 CALM      29.83R
BELLAIRE       MOCLDY    56  55  96 CALM      29.84S
CADILLAC       MOCLDY    55  53  94 CALM      29.86S
CHARLEVOIX     CLOUDY    59  58  96 CALM      29.86S
FRANKFORT      CLEAR     56  55  95 CALM      29.84S
GAYLORD        PTCLDY    55  55 100 CALM      29.85S
GRAYLING         N/A     51  50  98 CALM      29.86S FOG
HARBOR SPRINGS PTCLDY    58  56  95 CALM      29.83S
HOUGHTON LAKE  CLEAR     52  50  93 CALM      29.87R
MANISTEE       MOCLDY    59  54  82 CALM      29.86S
OSCODA         PTCLDY    60  55  84 W3        29.83S
PELLSTON       PTCLDY    54  53  97 CALM      29.83S
ROGERS CITY    PTCLDY    57  55  95 CALM      29.83S
TRAVERSE CITY  CLEAR     57  54  89 CALM      29.83R
$$
MIZ007>008-015-040600-
EASTERN UPPER MICHIGAN

CITY           SKY/WX    TMP DP  RH WIND       PRES   REMARKS
KINROSS        MOCLDY    54  54 100 CALM      29.80S
MACKINAC ISLAN PTCLDY    58  53  84 W6        29.81S
NEWBERRY       CLOUDY    57  54  89 CALM      29.81R
S. S. MARIE    CLOUDY    59  53  80 W5        29.79S
MUNISING         N/A     62  54  74 SW6       29.80S
$$
MIZ004>006-011>014-085-040600-
CENTRAL UPPER MICHIGAN

CITY           SKY/WX    TMP DP  RH WIND       PRES   REMARKS
MANISTIQUE     CLOUDY    59  57  94 SW3       29.81S
ESCANABA       CLOUDY    61  55  82 W6        29.83R
MENOMINEE      MOCLDY    61  52  72 CALM      29.84S
SAWYER-GWINN   CLOUDY    60  53  77 W6        29.83R
$$
MIZ001>003-009>011-084-040600-
WESTERN UPPER MICHIGAN

CITY           SKY/WX    TMP DP  RH WIND       PRES   REMARKS
IRON MOUNTAIN  PTCLDY    59  56  89 CALM      29.84S
HOUGHTON       MOCLDY    56  54  93 NW8       29.82S
COPPER HARBOR    N/A     60  56  86 N12       29.80S
IRONWOOD       MOCLDY    57  57 100 W6        29.86R
$$

ABBREVIATIONS USED IN REMARKS
   TC - TEMPERATURE IN CELSIUS
  WCI - WIND CHILL INDEX
   HX - HEAT INDEX
  VSB - VISIBILITY




USA.gov is the U.S. government's official web portal to all federal, state and local government web resources and services.